Historyczne dane pomiarowe

Dodano dane terminowe – wersja testowa.

Dane z okresu 1951-2019

Wersja bazy: 1.34 [2019-03-16, lista zmian], aktualizacja planowana na 2019-04-15

Dane meteo z obszaru Polski uzyskane na podstawie danych udostępnionych przez Instytut Meteorologii i Gospodarki Wodnej – Państwowy Instytut Badawczy.

 

Wybierz Datę:    

       

TemperaturaWilgotnośćWiatrCiśnienieOpadyŚniegCzas trwania zjawisk
 Stacja t tx tn tng RH VA  wxwx mslp ppp RRR   cm mm wxwxwxwxwxwxwx
2019-07-31 20.2 25.3 16.1 15.0-------- 2.6------------
2019-07-30 22.5 30.5 16.9 15.4-------- 8.0------------
2019-07-29 24.1 33.7 17.7 15.2-------- 0.0------------
2019-07-28 23.3 31.0 15.8 14.0-------- 0.0------------
2019-07-27 19.2 27.2 13.1 10.2-------- 11.4------------
2019-07-26 21.0 27.0 14.6 11.7-------- 0.0------------
2019-07-25 23.0 30.4 15.4 12.7-------- 0.0------------
2019-07-24 21.6 25.9 17.5 16.7-------- 0.0------------
2019-07-23 18.7 22.9 15.7 13.7-------- 0.6------------
2019-07-22 20.1 25.7 13.0 10.7-------- 0.3------------
2019-07-21 21.6 28.1 16.2 13.7-------- 1.9------------
2019-07-20 22.5 29.2 15.4 13.0-------- 0.2------------
2019-07-19 19.4 28.3 9.5 7.3-------- 0.0------------
2019-07-18 18.0 25.7 8.2 6.1-------- 0.0------------
2019-07-17 17.1 21.9 12.4 10.0-------- 0.0------------
2019-07-16 16.4 22.1 10.7 8.3-------- 0.0------------
2019-07-15 16.8 23.9 6.0 4.0-------- 0.0------------
2019-07-14 17.4 23.4 11.9 10.3-------- 0.0------------
2019-07-13 17.1 22.7 14.0 13.2-------- 2.1------------
2019-07-12 18.6 26.2 9.3 7.3-------- 0.1------------
2019-07-11 16.2 22.0 10.8 8.7-------- 0.0------------
2019-07-10 14.1 18.3 11.9 10.1-------- 15.8------------
2019-07-09 14.7 19.2 12.1 10.4-------- 3.3------------
2019-07-08 14.9 18.4 11.9 9.5-------- 0.0------------
2019-07-07 16.0 20.3 13.4 11.9-------- 0.0------------
2019-07-06 17.7 23.8 11.0 7.0-------- 2.4------------
2019-07-05 16.2 19.9 10.1 6.8-------- 0.0------------
2019-07-04 15.6 22.2 6.5 3.3-------- 0.0------------
2019-07-03 15.5 21.5 8.0 4.6-------- 0.0------------
2019-07-02 19.8 24.7 15.2 13.2-------- 0.0------------
2019-07-01 25.2 33.1 19.1 15.3-------- 0.0------------
2019-06-30 26.0 36.1 12.3 9.4-------- 0.0------------
2019-06-29 20.0 28.4 7.7 5.2-------- 0.0------------
2019-06-28 17.7 24.7 9.2 6.8-------- 0.0------------
2019-06-27 23.5 32.5 20.1 18.1-------- 0.0------------
2019-06-26 29.0 35.3 21.3 18.6-------- 0.1------------
2019-06-25 24.7 32.6 13.1 10.5-------- 0.0------------
2019-06-24 21.0 28.8 10.2 7.7-------- 0.0------------
2019-06-23 19.5 24.5 13.3 9.9-------- 0.0------------
2019-06-22 20.8 25.7 15.6 13.0-------- 0.0------------
2019-06-21 21.2 27.6 14.0 12.2-------- 0.0------------
2019-06-20 23.6 30.5 16.9 14.2-------- 0.5------------
2019-06-19 23.0 30.3 15.8 13.2-------- 0.0------------
2019-06-18 19.3 26.3 10.2 7.9-------- 0.0------------
2019-06-17 19.0 24.7 11.5 9.2-------- 0.0------------
2019-06-16 22.5 27.3 18.1 16.3-------- 0.0------------
2019-06-15 24.7 29.7 18.4 16.3-------- 0.0------------
2019-06-14 22.2 27.5 16.1 14.9-------- 0.0------------
2019-06-13 24.1 31.3 19.8 16.5-------- 26.1------------
2019-06-12 26.8 33.3 18.4 15.2-------- 0.0------------
2019-06-11 26.6 33.8 18.4 15.5-------- 0.0------------
2019-06-10 23.7 31.3 14.3 11.5-------- 0.0------------
2019-06-09 18.4 26.8 8.0 5.0-------- 0.0------------
2019-06-08 20.3 27.4 13.9 11.2-------- 0.0------------
2019-06-07 20.6 25.7 14.4 11.5-------- 0.0------------
2019-06-06 22.9 29.5 16.1 13.6-------- 0.0------------
2019-06-05 22.8 29.2 15.2 13.1-------- 0.0------------
2019-06-04 22.3 30.2 13.1 9.7-------- 0.0------------
2019-06-03 21.4 28.2 12.1 9.6-------- 0.0------------
2019-06-02 20.4 27.1 12.3 9.9-------- 0.0------------
67.2 ms

 

Źródłem pochodzenia danych jest Instytut Meteorologii i Gospodarki Wodnej – Państwowy Instytut Badawczy. Dane Instytutu Meteorologii i Gospodarki Wodnej – Państwowego Instytutu Badawczego zostały przetworzone.

Dane źródłowe można odnaleźć na stronie https://dane.imgw.pl